CW5629 Weather Reports


Display with metric or nautical units.
time (UTC)temp
F
wind
direction
speed
MPH
gust
MPH
rain 1hr
in
rain 24hr
in
rain mn
in
humidity
%
barometer
mb
20260904143119 66 206 1.0 5.0 0.00 0.12 0.02 67 1017.4
20260904142131 66 333 1.0 2.0 0.00 0.12 0.02 67 1017.2
20260904141135 66 231 0.0 4.0 0.00 0.12 0.02 67 1017.0
20260904140124 66 236 1.0 4.0 0.00 0.12 0.02 67 1017.1
20260904135117 66 211 0.0 4.0 0.00 0.12 0.02 66 1016.9
20260904134122 66 248 0.0 2.0 0.00 0.12 0.02 66 1016.9
20260904133134 66 323 0.0 4.0 0.00 0.12 0.02 66 1016.9
20260904132126 66 184 1.0 3.0 0.00 0.12 0.02 66 1016.6
20260904131139 66 217 0.0 3.0 0.00 0.12 0.02 65 1016.5
20260904130122 66 221 0.0 8.0 0.00 0.12 0.02 64 1016.4
20260904125138 67 257 0.0 5.0 0.00 0.12 0.02 66 1016.3
20260904124150 67 206 1.0 5.0 0.00 0.12 0.02 65 1016.3
20260904123142 67 1 0.0 3.0 0.00 0.12 0.02 64 1016.1
20260904122127 68 226 1.0 4.0 0.00 0.12 0.02 65 1015.9
20260904121121 68 345 1.0 6.0 0.00 0.12 0.02 68 1015.8
20260904120126 69 224 1.0 4.0 0.00 0.12 0.02 68 1015.8
20260904115138 69 238 1.0 8.0 0.00 0.12 0.02 66 1015.6
20260904114129 69 240 2.0 7.0 0.00 0.12 0.02 67 1015.5
20260904113114 69 318 1.0 6.0 0.00 0.12 0.02 69 1015.4
20260904112148 69 39 2.0 9.0 0.00 0.12 0.02 69 1015.3
20260904111120 69 268 1.0 5.0 0.00 0.12 0.02 71 1015.2
20260904110127 68 120 2.0 6.0 0.00 0.12 0.02 73 1015.1
20260904105110 68 222 0.0 6.0 0.00 0.12 0.02 74 1014.9
20260904104123 68 108 1.0 5.0 0.00 0.12 0.02 76 1015.0
20260904103110 67 250 1.0 3.0 0.00 0.12 0.02 77 1014.9
20260904102125 67 354 1.0 5.0 0.00 0.12 0.02 78 1014.9
20260904101110 67 176 1.0 3.0 0.00 0.12 0.02 80 1014.9
20260904100122 67 240 0.0 4.0 0.00 0.12 0.02 82 1014.8
20260904095135 67 214 0.0 2.0 0.00 0.12 0.02 82 1014.7
20260904094121 68 124 1.0 6.0 0.00 0.12 0.02 81 1014.7
20260904093114 68 4 1.0 8.0 0.00 0.12 0.02 79 1014.8
20260904092147 68 210 1.0 4.0 0.00 0.12 0.02 82 1014.6
20260904091112 67 298 0.0 2.0 0.00 0.12 0.02 85 1014.4
20260904085112 65 297 1.0 5.0 0.00 0.12 0.02 88 1014.1
20260904084145 65 200 0.0 4.0 0.00 0.12 0.02 89 1014.0
20260904083137 64 226 0.0 3.0 0.00 0.12 0.02 90 1013.8
20260904082129 64 222 0.0 5.0 0.00 0.12 0.02 90 1013.7
20260904081114 64 224 1.0 5.0 0.00 0.12 0.02 91 1013.8
20260904080127 64 172 0.0 3.0 0.00 0.12 0.02 91 1013.5
20260904075111 63 51 0.0 4.0 0.00 0.12 0.02 92 1013.4
20260904074122 63 208 0.0 5.0 0.00 0.12 0.02 92 1013.4
20260904073135 63 360 0.0 2.0 0.00 0.12 0.02 92 1013.4
20260904072122 63 184 1.0 5.0 0.00 0.12 0.02 93 1013.3
20260904071131 63 219 0.0 2.0 0.00 0.12 0.02 93 1013.3
20260904070117 63 229 0.0 1.0 0.04 0.12 0.02 93 1013.2
20260904065129 63 63 0.0 3.0 0.12 0.12 0.02 93 1013.2
20260904064141 63 212 0.0 2.0 0.12 0.12 0.02 93 1013.1
20260904063126 64 70 0.0 4.0 0.12 0.12 0.02 92 1013.0
20260904062119 64 238 0.0 5.0 0.12 0.12 0.02 91 1012.8
20260904061110 66 238 0.0 9.0 0.12 0.12 0.02 91 1012.7
20260904060116 67 245 1.0 5.0 0.00 0.00 0.00 92 1012.2
20260904055127 68 200 0.0 4.0 0.00 0.00 0.00 92 1011.7
20260904054121 68 182 0.0 2.0 0.00 0.00 0.00 91 1011.7
20260904053132 68 208 0.0 3.0 0.00 0.00 0.00 90 1011.6
20260904052119 68 233 0.0 2.0 0.00 0.00 0.00 90 1011.6
20260904051132 68 216 0.0 3.0 0.00 0.00 0.00 89 1011.6
20260904050144 68 200 1.0 5.0 0.00 0.00 0.00 88 1011.6
20260904045136 68 227 0.0 5.0 0.00 0.00 0.00 88 1011.6
20260904044141 69 207 0.0 5.0 0.00 0.00 0.00 87 1011.6
20260904043121 69 252 1.0 6.0 0.00 0.00 0.00 87 1011.6
20260904042127 69 167 0.0 5.0 0.00 0.00 0.00 88 1011.7
20260904041120 69 225 0.0 4.0 0.00 0.00 0.00 88 1011.9
20260904040132 68 194 1.0 5.0 0.00 0.00 0.00 89 1011.8
20260904035117 68 218 0.0 4.0 0.00 0.00 0.00 89 1011.7
20260904034130 68 148 1.0 4.0 0.00 0.00 0.00 89 1011.7
20260904033135 68 223 0.0 5.0 0.00 0.00 0.00 89 1012.0
20260904032135 68 217 0.0 2.0 0.00 0.00 0.00 90 1012.2
20260904031119 68 257 0.0 2.0 0.00 0.00 0.00 90 1012.2
20260904030130 68 221 0.0 3.0 0.00 0.00 0.00 91 1012.4
20260904025112 68 207 0.0 1.0 0.00 0.00 0.00 91 1012.6
20260904024131 68 184 0.0 3.0 0.00 0.00 0.00 91 1012.7
20260904023116 68 221 0.0 3.0 0.00 0.00 0.00 90 1012.9
20260904022148 68 51 0.0 3.0 0.00 0.00 0.00 90 1013.1
20260904021113 68 329 0.0 2.0 0.00 0.00 0.00 90 1013.1
20260904020126 68 218 0.0 5.0 0.00 0.00 0.00 90 1013.1
20260904015120 68 221 0.0 4.0 0.00 0.00 0.00 90 1013.1
20260904014125 69 205 0.0 8.0 0.00 0.00 0.00 90 1013.2
20260904013119 68 198 1.0 4.0 0.00 0.00 0.00 90 1013.2
20260904012125 68 203 1.0 3.0 0.00 0.00 0.00 90 1013.4
20260904011135 68 199 0.0 4.0 0.00 0.00 0.00 89 1013.3
20260904010142 68 110 0.0 7.0 0.00 0.00 0.00 89 1013.4
20260904005119 68 212 1.0 4.0 0.00 0.00 0.00 90 1013.6
20260904004124 68 150 0.0 4.0 0.00 0.00 0.00 90 1013.7
20260904003117 68 239 1.0 4.0 0.00 0.00 0.00 90 1013.8
20260904002131 68 232 1.0 6.0 0.00 0.00 0.00 90 1013.9
20260904001117 68 177 0.0 5.0 0.00 0.00 0.00 90 1014.1
20260904000130 68 246 0.0 2.0 0.00 0.00 0.00 90 1014.1
20260903235117 68 211 0.0 5.0 0.00 0.00 0.00 89 1014.1
20260903234111 68 231 0.0 4.0 0.00 0.00 0.00 89 1014.1
20260903233116 68 208 0.0 3.0 0.00 0.00 0.00 88 1014.2
20260903232130 68 23 1.0 5.0 0.00 0.00 0.00 88 1014.5
20260903231117 68 241 0.0 5.0 0.00 0.00 0.00 88 1014.5
20260903230150 68 206 0.0 3.0 0.00 0.00 0.00 87 1014.8
20260903225122 68 184 1.0 3.0 0.00 0.00 0.00 87 1014.8
20260903224135 68 236 0.0 5.0 0.00 0.00 0.00 86 1014.9
20260903223121 68 153 0.0 2.0 0.00 0.00 0.00 85 1014.8
20260903222134 68 210 0.0 2.0 0.00 0.00 0.00 85 1014.9
20260903221148 68 204 1.0 5.0 0.00 0.00 0.00 85 1015.1
20260903220133 68 241 1.0 5.0 0.00 0.00 0.00 85 1015.2
20260903215119 68 60 1.0 4.0 0.00 0.00 0.00 85 1015.4
20260903214151 68 229 1.0 3.0 0.00 0.00 0.00 85 1015.5
20260903213143 68 191 0.0 3.0 0.00 0.00 0.00 85 1015.6
20260903212136 68 167 1.0 4.0 0.00 0.00 0.00 85 1015.7
20260903211119 68 57 0.0 2.0 0.00 0.00 0.00 85 1015.9
20260903210131 69 68 0.0 5.0 0.00 0.00 0.00 84 1015.9
20260903205143 69 67 1.0 5.0 0.00 0.00 0.00 85 1015.9
20260903204135 69 245 0.0 4.0 0.00 0.00 0.00 85 1016.0
20260903203120 69 116 0.0 6.0 0.00 0.00 0.00 85 1016.2
20260903202134 69 193 0.0 3.0 0.00 0.00 0.00 85 1016.3
20260903201139 69 213 0.0 4.0 0.00 0.00 0.00 84 1016.4
20260903200130 69 222 0.0 4.0 0.00 0.00 0.00 83 1016.2
20260903195144 69 212 1.0 2.0 0.00 0.00 0.00 83 1016.2
20260903194137 70 205 1.0 5.0 0.00 0.00 0.00 82 1016.4
20260903193122 70 224 0.0 4.0 0.00 0.00 0.00 82 1016.4
20260903192113 70 165 0.0 2.0 0.00 0.00 0.00 81 1016.3
20260903191126 70 231 0.0 3.0 0.00 0.00 0.00 80 1016.4
20260903190131 70 203 0.0 1.0 0.00 0.00 0.00 79 1016.5
20260903185125 71 200 0.0 5.0 0.00 0.00 0.00 79 1016.6
20260903184131 71 186 0.0 2.0 0.00 0.00 0.00 78 1016.7
20260903183124 71 198 0.0 5.0 0.00 0.00 0.00 78 1016.7
20260903182136 71 176 1.0 4.0 0.00 0.00 0.00 77 1016.7
20260903181121 72 224 2.0 7.0 0.00 0.00 0.00 77 1016.8
20260903180134 72 224 0.0 3.0 0.00 0.00 0.00 76 1016.6
20260903175120 72 24 1.0 6.0 0.00 0.00 0.00 75 1016.6
20260903174134 73 75 1.0 8.0 0.00 0.00 0.00 75 1016.7
20260903173119 74 222 1.0 4.0 0.00 0.00 0.00 76 1016.6
20260903172116 75 240 1.0 4.0 0.00 0.00 0.00 75 1016.6
20260903171122 75 192 1.0 7.0 0.00 0.00 0.00 75 1016.5
20260903170116 76 342 1.0 5.0 0.00 0.00 0.00 73 1016.5
20260903165129 77 225 1.0 5.0 0.00 0.00 0.00 72 1016.6
20260903164114 77 200 2.0 6.0 0.00 0.00 0.00 71 1016.6
20260903163146 78 7 1.0 5.0 0.00 0.00 0.00 70 1016.6
20260903162137 78 217 1.0 8.0 0.00 0.00 0.00 69 1016.7
20260903161151 78 210 0.0 5.0 0.00 0.00 0.00 70 1016.6
20260903160116 78 201 1.0 6.0 0.00 0.00 0.00 70 1016.9
20260903155129 77 231 1.0 7.0 0.00 0.00 0.00 71 1016.9
20260903154140 77 49 1.0 7.0 0.00 0.00 0.00 72 1016.9
20260903153124 77 225 1.0 6.0 0.00 0.00 0.00 69 1017.0
20260903152116 78 226 0.0 4.0 0.00 0.00 0.00 68 1017.0
20260903151126 79 231 0.0 4.0 0.00 0.00 0.00 67 1016.9
20260903150131 79 200 0.0 6.0 0.00 0.00 0.00 66 1017.2
20260903145123 78 216 1.0 4.0 0.00 0.00 0.00 67 1017.2
20260903144136 79 104 1.0 4.0 0.00 0.00 0.00 65 1017.3